Regional Weather Roundup
Issued by NWS

Home | Current Version | Previous Version | Text Only | Print | Product List | Glossary On
Versions: 1 2 3 4 5 6 7 8 9 10 11 12 13 14 15 16 17 18 19 20 21 22 23 24 25 26 27 28 29 30 31 32 33 34 35 36 37 38 39 40 41 42 43 44 45 46 47 48 49 50
000
ASUS45 KABQ 201210
RWRNM
NEW MEXICO REGIONAL WEATHER ROUNDUP
NATIONAL WEATHER SERVICE ALBUQUERQUE NM
600 AM MDT SUN MAY 20 2018

NOTE: "FAIR" MEANS FEW OR NO CLOUDS BELOW 12,000 FEET AGL WITH NO
       SIGNIFICANT WEATHER OR OBSTRUCTIONS TO VISION.

      THIS PRODUCT IS RELEASED AS TWO VERSIONS.  ONE VERSION NEAR
      THE TOP OF THE HOUR CONTAINING PRELIMINARY DATA FROM ALBUQUERQUE
      AND OTHER STATIONS.  A FINAL VERSION WITH ADDITIONAL DATA IS
      ISSUED ABOUT 10 MINUTES AFTER THE HOUR.

NMZ501-503-504-510>518-201300-
NORTHWEST PLATEAU/NORTHCENTRAL MOUNTAINS

CITY           SKY/WX    TMP DP  RH WIND       PRES   REMARKS
FARMINGTON     FAIR      54  28  36 E10       30.02R
6HR MIN TEMP:  51; 6HR MAX TEMP:  61;

LOS ALAMOS     FAIR      51  35  53 SW9       30.20R
SANTA FE       FAIR      45  36  70 W5        30.16R
6HR MIN TEMP:  44; 6HR MAX TEMP:  63;

TAOS           FAIR      40  31  70 NE3       30.23R
ANGEL FIRE     FAIR      26  24  91 CALM      30.30R

$$
NMZ402-403-502-505>509-201300-
WESTCENTRAL MOUNTAINS/SOUTHWEST MOUNTAINS

CITY           SKY/WX    TMP DP  RH WIND       PRES   REMARKS
GALLUP         FAIR      40   9  28 NE5       30.08S
6HR MIN TEMP:  37; 6HR MAX TEMP:  57;

GRANTS         FAIR      54  29  39 S12       30.14R
SILVER CITY    FAIR      48  10  21 NW10      30.04R

$$
NMZ407-409-411-412-201300-
SOUTHERN DESERTS

CITY           SKY/WX    TMP DP  RH WIND       PRES   REMARKS
DEMING         FAIR      48  10  21 SW3       30.00R
6HR MIN TEMP:  47; 6HR MAX TEMP:  62;

LAS CRUCES     FAIR      47   2  15 E3        30.01R
HOLLOMAN AFB   FAIR      53  13  20 CALM      30.02R
ALAMOGORDO     FAIR      54   5  14 N3        30.01R
T OR C         FAIR      62  40  44 N18       30.03R
6HR MIN TEMP:  60; 6HR MAX TEMP:  67;


$$
NMZ519>523-201300-
CENTRAL VALLEYS/CENTRAL HIGHLANDS

CITY           SKY/WX    TMP DP  RH WIND       PRES   REMARKS
ALBUQUERQUE    FAIR      56  40  55 E29G37    30.09R
6HR MIN TEMP:  56; 6HR MAX TEMP:  67;

DOUBLE EAGLE   FAIR      52  38  57 SE6       30.14R
MORIARTY ARPT  FAIR      49  40  72 E7        30.22R
6HR MIN TEMP:  49; 6HR MAX TEMP:  58;

CLINES CORNERS FAIR      43  37  79 E15       30.23R
6HR MIN TEMP:  43; 6HR MAX TEMP:  51;

BELEN          FAIR      59  36  41 S9        30.08R
6HR MIN TEMP:  59; 6HR MAX TEMP:  67;

SOCORRO        FAIR      57  38  50 N6        30.09R
6HR MIN TEMP:  56; 6HR MAX TEMP:  66;


$$
NMZ524>526-539-540-201300-
SOUTHCENTRAL MOUNTAINS

CITY           SKY/WX    TMP DP  RH WIND       PRES   REMARKS
RUIDOSO        CLOUDY    48  41  76 S6        30.24R

$$
NMZ527>531-201300-
NORTHEAST HIGHLANDS/NORTHEAST PLAINS

CITY           SKY/WX    TMP DP  RH WIND       PRES   REMARKS
LAS VEGAS      FAIR      39  36  89 N6        30.23S WCI  35
6HR MIN TEMP:  37; 6HR MAX TEMP:  46;

RATON          FAIR      41  37  86 NE6       30.21S
6HR MIN TEMP:  41; 6HR MAX TEMP:  46;

CLAYTON        FAIR      43  42  97 N18       30.20R
6HR MIN TEMP:  43; 6HR MAX TEMP:  47;


$$
NMZ532>537-201300-
EASTCENTRAL PLAINS

CITY           SKY/WX    TMP DP  RH WIND       PRES   REMARKS
SANTA ROSA     FAIR      47  43  85 E6        30.19R
TUCUMCARI      CLOUDY    51  46  83 E9        30.18R
6HR MIN TEMP:  50; 6HR MAX TEMP:  60;

CANNON AFB     MOCLDY    49  49 100 NE24G30   30.18R
6HR MIN TEMP:  49; 6HR MAX TEMP:  61; 6HR PCP: TRACE;

CLOVIS AIRPORT MOCLDY    49  45  86 N18G24    30.18R

$$
NMZ028-029-538-201300-
SOUTHEAST PLAINS

CITY           SKY/WX    TMP DP  RH WIND       PRES   REMARKS
ROSWELL        CLOUDY    63  46  54 N8        30.11R
6HR MIN TEMP:  63; 6HR MAX TEMP:  74;

ARTESIA        MOCLDY    64  45  48 N10       30.12R
CARLSBAD       CLOUDY    65  49  56 NE14      30.08R
6HR MIN TEMP:  64; 6HR MAX TEMP:  72;

HOBBS          PTCLDY    59  52  77 E16G25    30.08R


$$




USA.gov is the U.S. government's official web portal to all federal, state and local government web resources and services.